Flag for Austria Weather past 2 weeks in Bruck an der Mur, Styria, Austria

54 °F

Light rain. Low clouds.

Feels Like: 54 °F
Forecast: 48 / 55 °F
Wind: 1 mph from North

Location: Zeltweg

Current Time: Oct 7, 2015 at 10:57:05 AM

Latest Report: Oct 7, 2015 at 10:20 AM

Visibility: 4 mi

Pressure: 29.89 "Hg

Humidity: 94%

Dew point: 52 °F

Location of Bruck an der MurLocation

Historic Weather in Bruck an der Mur — Graph


Bruck an der Mur temperature yesterday

Maximum temperature yesterday: 61 °F (at 3:50 PM)
Minimum temperature yesterday: 43 °F (at 4:50 AM)
Average temperature yesterday: 53 °F

Past Weeks' High & Low Weather Summary

High66 °F (Oct 3, 3:50 PM)100% (Sep 23, 12:20 PM)30.51 "Hg (Sep 23, 12:20 PM)
Low28 °F (Sep 29, 7:20 AM)32% (Oct 5, 3:50 PM)29.77 "Hg (Sep 22, 3:50 PM)
Average50 °F76%30.17 "Hg
* Reported Sep 22 9:20 AM — Oct 7 9:50 AM, Bruck an der Mur, Weather by CustomWeather, © 2015

Note: Actual official high and low records may vary slightly from our data, if they occured in-between our weather recording intervals... More about our weather records


Bruck an der Mur weather history for previous 24 hours

Time TempWeatherWind HumidityBarometerVisibility
9:50 AM
Wed, Oct 7
54 °FLight rain. Low clouds.1 mph94%29.89 "Hg4 mi
9:20 AM54 °FLight rain. Fog.1 mph94%29.89 "Hg3 mi
8:50 AM54 °FLight rain. Fog.1 mph94%29.86 "Hg2 mi
8:20 AM52 °FLight rain. Fog.No wind100%29.86 "Hg2 mi
7:50 AM52 °FRain. Fog.1 mph100%29.86 "Hg2 mi
7:20 AM52 °FRain. Fog.1 mph100%29.86 "Hg2 mi
6:50 AM52 °FRain. Passing clouds.1 mph94%29.86 "Hg4 mi
5:50 AM52 °FPassing clouds.1 mph88%29.83 "Hg6 mi
4:50 AM52 °FPassing clouds.1 mph88%29.83 "Hg9 mi
10:50 PM
Tue, Oct 6
54 °FPassing clouds.2 mph88%29.86 "Hg12 mi
9:50 PM55 °FPassing clouds.2 mph77%29.86 "Hg12 mi
8:50 PM55 °FPassing clouds.3 mph77%29.86 "Hg12 mi
8:20 PM55 °FPartly cloudy.1 mph77%29.86 "Hg12 mi
7:50 PM55 °FPartly cloudy.2 mph82%29.83 "Hg12 mi
7:20 PM55 °FBroken clouds.1 mph77%29.83 "Hg12 mi
6:50 PM57 °FLight rain. Partly sunny.3 mph72%29.83 "Hg19 mi
6:20 PM57 °FPartly sunny.2 mph72%29.83 "Hg19 mi
5:50 PM59 °FLight rain. Partly sunny.3 mph68%29.83 "Hg19 mi
5:20 PM61 °FPartly sunny.3 mph68%29.83 "Hg22 mi
4:50 PM59 °FPartly sunny.2 mph72%29.83 "Hg25 mi
4:20 PM61 °FPartly sunny.1 mph68%29.83 "Hg25 mi
3:50 PM61 °FPartly sunny.2 mph68%29.83 "Hg25 mi
3:20 PM59 °FPartly sunny.2 mph68%29.86 "Hg25 mi
2:50 PM59 °FPartly sunny.1 mph63%29.86 "Hg25 mi
2:20 PM59 °FPartly sunny.2 mph68%29.86 "Hg25 mi
1:50 PM57 °FPartly sunny.2 mph67%29.86 "Hg25 mi
1:20 PM57 °FPartly sunny.3 mph72%29.89 "Hg25 mi
12:50 PM57 °FPartly sunny.1 mph67%29.89 "Hg25 mi
12:20 PM55 °FPartly sunny.2 mph72%29.89 "Hg22 mi
11:50 AM54 °FPartly sunny.2 mph77%29.92 "Hg19 mi
11:20 AM52 °FPartly sunny.1 mph77%29.92 "Hg19 mi
10:50 AM50 °FLight rain. Partly sunny.2 mph82%29.92 "Hg19 mi
10:20 AM48 °FPartly sunny.2 mph87%29.95 "Hg19 mi
Weather by CustomWeather, © 2015

See weather overviewHow to use our weather pages